When you browse on this site, cookies collect data to enhance your experience and personalize the content and advertising you see.
Visit our Privacy Policy to learn more. By continuing to use the site, you agree to this use of cookies and data.
  • In Latvia
  • List of Countries
  • For 7 days
  • Water Temperature
  • Weather Map
  • Weather Widgets
  • user-avatar
    Login

    Hourly Weather Verhnezundov

    Today, 24 August, Saturday

    Time Temperature Precipitation Wind Pressure Humidity
    00:00 +33°C° 0 mm 8 mps 749 mmHg 29%
    01:00 +32°C° 0 mm 8 mps 749 mmHg 30%
    02:00 +32°C° 0 mm 7 mps 749 mmHg 30%
    03:00 +30°C° 0 mm 6 mps 750 mmHg 30%
    04:00 +29°C° 0 mm 6 mps 750 mmHg 32%
    05:00 +29°C° 0 mm 5 mps 750 mmHg 33%
    06:00 +28°C° 0 mm 5 mps 750 mmHg 35%
    07:00 +30°C° 0 mm 6 mps 750 mmHg 32%
    08:00 +33°C° 0 mm 6 mps 750 mmHg 29%
    09:00 +35°C° 0 mm 6 mps 751 mmHg 26%
    10:00 +36°C° 0 mm 6 mps 750 mmHg 23%
    11:00 +38°C° 0 mm 6 mps 750 mmHg 21%
    12:00 +40°C° 0 mm 6 mps 750 mmHg 18%
    13:00 +40°C° 0 mm 7 mps 750 mmHg 18%
    14:00 +41°C° 0 mm 7 mps 750 mmHg 18%
    15:00 +41°C° 0 mm 7 mps 749 mmHg 17%
    16:00 +40°C° 0 mm 7 mps 749 mmHg 20%
    17:00 +39°C° 0 mm 6 mps 749 mmHg 22%
    18:00 +38°C° 0 mm 6 mps 749 mmHg 24%
    19:00 +35°C° 0 mm 6 mps 749 mmHg 26%
    20:00 +34°C° 0 mm 7 mps 749 mmHg 29%
    21:00 +33°C° 0 mm 7 mps 750 mmHg 31%
    22:00 +32°C° 0 mm 7 mps 750 mmHg 32%
    23:00 +32°C° 0 mm 6 mps 749 mmHg 33%

    Tomorrow, 25 August, Sunday

    Time Temperature Precipitation Wind Pressure Humidity
    00:00 +30°C° 0 mm 6 mps 749 mmHg 35%
    01:00 +29°C° 0 mm 6 mps 749 mmHg 36%
    02:00 +29°C° 0 mm 6 mps 749 mmHg 38%
    03:00 +28°C° 0 mm 6 mps 749 mmHg 40%
    04:00 +28°C° 0 mm 6 mps 749 mmHg 42%
    05:00 +27°C° 0 mm 5 mps 749 mmHg 44%
    06:00 +26°C° 0 mm 5 mps 749 mmHg 46%
    07:00 +28°C° 0 mm 5 mps 750 mmHg 42%
    08:00 +30°C° 0 mm 5 mps 750 mmHg 39%
    09:00 +32°C° 0 mm 6 mps 751 mmHg 35%
    10:00 +32°C° 0 mm 6 mps 751 mmHg 35%
    11:00 +33°C° 0 mm 7 mps 751 mmHg 36%
    12:00 +33°C° 0 mm 7 mps 751 mmHg 36%
    13:00 +33°C° 0 mm 6 mps 751 mmHg 35%
    14:00 +34°C° 0 mm 6 mps 751 mmHg 33%
    15:00 +34°C° 0 mm 6 mps 751 mmHg 31%
    16:00 +33°C° 0 mm 5 mps 751 mmHg 34%
    17:00 +32°C° 0 mm 5 mps 751 mmHg 37%
    18:00 +30°C° 0 mm 5 mps 751 mmHg 40%
    19:00 +28°C° 0 mm 4 mps 752 mmHg 45%
    20:00 +27°C° 0 mm 3 mps 752 mmHg 50%
    21:00 +25°C° 0 mm 2 mps 753 mmHg 55%
    22:00 +24°C° 0 mm 2 mps 753 mmHg 58%
    23:00 +24°C° 0 mm 1 mps 753 mmHg 61%

    Day after tomorrow, 26 August, Monday

    Time Temperature Precipitation Wind Pressure Humidity
    00:00 +21°C° 0 mm 0 mps 753 mmHg 63%
    01:00 +23°C° 0 mm 1 mps 753 mmHg 63%
    02:00 +23°C° 0 mm 2 mps 753 mmHg 62%
    03:00 +21°C° 0 mm 2 mps 753 mmHg 61%
    04:00 +21°C° 0 mm 3 mps 753 mmHg 58%
    05:00 +21°C° 0 mm 3 mps 754 mmHg 55%
    06:00 +21°C° 0 mm 3 mps 754 mmHg 52%
    07:00 +23°C° 0 mm 4 mps 754 mmHg 48%
    08:00 +25°C° 0 mm 5 mps 754 mmHg 45%
    09:00 +27°C° 0 mm 5 mps 755 mmHg 41%
    10:00 +28°C° 0 mm 5 mps 755 mmHg 39%
    11:00 +29°C° 0 mm 5 mps 755 mmHg 38%
    12:00 +30°C° 0 mm 5 mps 755 mmHg 36%
    13:00 +32°C° 0 mm 5 mps 754 mmHg 35%
    14:00 +32°C° 0 mm 5 mps 754 mmHg 33%
    15:00 +32°C° 0 mm 5 mps 754 mmHg 32%
    16:00 +32°C° 0 mm 5 mps 754 mmHg 33%
    17:00 +30°C° 0 mm 5 mps 754 mmHg 34%
    18:00 +30°C° 0 mm 5 mps 754 mmHg 34%
    19:00 +28°C° 0 mm 5 mps 754 mmHg 36%
    20:00 +27°C° 0 mm 5 mps 754 mmHg 37%
    21:00 +25°C° 0 mm 5 mps 754 mmHg 38%
    22:00 +25°C° 0 mm 5 mps 754 mmHg 35%
    23:00 +23°C° 0 mm 5 mps 754 mmHg 32%

    27 August, Tuesday

    Time Temperature Precipitation Wind Pressure Humidity
    00:00 +23°C° 0 mm 5 mps 754 mmHg 29%
    01:00 +22°C° 0 mm 5 mps 753 mmHg 30%
    02:00 +21°C° 0 mm 5 mps 753 mmHg 32%
    03:00 +21°C° 0 mm 4 mps 753 mmHg 34%
    04:00 +20°C° 0 mm 4 mps 753 mmHg 36%
    05:00 +20°C° 0 mm 4 mps 753 mmHg 38%
    06:00 +20°C° 0 mm 4 mps 753 mmHg 40%
    07:00 +22°C° 0 mm 4 mps 753 mmHg 37%
    08:00 +25°C° 0 mm 4 mps 753 mmHg 35%
    09:00 +27°C° 0 mm 4 mps 753 mmHg 33%
    10:00 +28°C° 0 mm 4 mps 752 mmHg 33%
    11:00 +29°C° 0 mm 3 mps 752 mmHg 33%
    12:00 +30°C° 0 mm 3 mps 752 mmHg 33%
    13:00 +31°C° 0 mm 3 mps 751 mmHg 31%
    14:00 +31°C° 0 mm 2 mps 751 mmHg 30%
    15:00 +31°C° 0 mm 2 mps 750 mmHg 29%
    16:00 +31°C° 0 mm 2 mps 750 mmHg 30%
    17:00 +30°C° 0 mm 1 mps 750 mmHg 31%
    18:00 +30°C° 0 mm 1 mps 749 mmHg 32%
    19:00 +28°C° 0 mm 2 mps 749 mmHg 32%
    20:00 +27°C° 0 mm 3 mps 749 mmHg 31%
    21:00 +25°C° 0 mm 4 mps 749 mmHg 31%
    22:00 +24°C° 0 mm 3 mps 749 mmHg 31%
    23:00 +24°C° 0 mm 3 mps 749 mmHg 32%

    28 August, Wednesday

    Time Temperature Precipitation Wind Pressure Humidity
    00:00 +23°C° 0 mm 2 mps 749 mmHg 32%
    01:00 +21°C° 0 mm 2 mps 749 mmHg 33%
    02:00 +20°C° 0 mm 3 mps 749 mmHg 34%
    03:00 +19°C° 0 mm 3 mps 749 mmHg 36%
    04:00 +19°C° 0 mm 3 mps 749 mmHg 38%
    05:00 +18°C° 0 mm 3 mps 749 mmHg 41%
    06:00 +18°C° 0 mm 3 mps 749 mmHg 43%
    07:00 +20°C° 0 mm 4 mps 749 mmHg 41%
    08:00 +22°C° 0 mm 4 mps 749 mmHg 39%
    09:00 +25°C° 0 mm 5 mps 749 mmHg 37%
    10:00 +26°C° 0 mm 6 mps 749 mmHg 38%
    11:00 +27°C° 0 mm 6 mps 749 mmHg 38%
    12:00 +28°C° 0 mm 6 mps 749 mmHg 38%
    13:00 +28°C° 0 mm 7 mps 749 mmHg 35%
    14:00 +28°C° 0 mm 7 mps 749 mmHg 33%
    15:00 +28°C° 0 mm 7 mps 749 mmHg 30%
    16:00 +27°C° 0 mm 7 mps 749 mmHg 28%
    17:00 +24°C° 0 mm 6 mps 750 mmHg 25%
    18:00 +23°C° 0 mm 6 mps 750 mmHg 23%
    19:00 +21°C° 0 mm 6 mps 750 mmHg 27%
    20:00 +19°C° 0 mm 5 mps 751 mmHg 31%
    21:00 +16°C° 0 mm 5 mps 751 mmHg 36%
    22:00 +15°C° 0 mm 4 mps 752 mmHg 37%
    23:00 +14°C° 0 mm 4 mps 752 mmHg 39%

    29 August, Thursday

    Time Temperature Precipitation Wind Pressure Humidity
    00:00 +13°C° 0 mm 3 mps 752 mmHg 41%
    01:00 +12°C° 0 mm 3 mps 752 mmHg 43%
    02:00 +13°C° 0 mm 2 mps 752 mmHg 45%
    03:00 +12°C° 0 mm 2 mps 752 mmHg 46%
    04:00 +12°C° 0 mm 2 mps 753 mmHg 47%
    05:00 +12°C° 0 mm 2 mps 753 mmHg 49%
    06:00 +10°C° 0 mm 2 mps 753 mmHg 50%
    07:00 +13°C° 0 mm 2 mps 753 mmHg 46%
    08:00 +14°C° 0 mm 2 mps 753 mmHg 43%
    09:00 +16°C° 0 mm 2 mps 753 mmHg 39%
    10:00 +17°C° 0 mm 2 mps 753 mmHg 35%
    11:00 +18°C° 0 mm 2 mps 752 mmHg 31%
    12:00 +20°C° 0 mm 3 mps 752 mmHg 27%
    13:00 +20°C° 0 mm 3 mps 752 mmHg 26%
    14:00 +21°C° 0 mm 3 mps 751 mmHg 24%
    15:00 +22°C° 0 mm 3 mps 751 mmHg 23%
    16:00 +21°C° 0 mm 3 mps 751 mmHg 24%
    17:00 +21°C° 0 mm 3 mps 751 mmHg 26%
    18:00 +20°C° 0 mm 3 mps 751 mmHg 27%
    19:00 +18°C° 0 mm 3 mps 751 mmHg 30%
    20:00 +17°C° 0 mm 2 mps 751 mmHg 32%
    21:00 +16°C° 0 mm 2 mps 751 mmHg 35%
    22:00 +15°C° 0 mm 2 mps 751 mmHg 39%
    23:00 +13°C° 0 mm 3 mps 751 mmHg 42%
    Show more